Time,TemperatureF,DewpointF,PressureIn,WindDirection,WindDirectionDegrees,WindSpeedMPH,WindSpeedGustMPH,Humidity,HourlyPrecipIn,Conditions,Clouds,dailyrainin,SoftwareType,DateUTC
2013-04-17 00:00:00,64.0,57.0,30.14,SW,233,0.0,0.0,78,0.00,,,0.00,Wunderground v.1.15,2013-04-17 04:00:00,
2013-04-17 00:01:00,64.0,56.6,30.14,SW,233,1.0,1.0,77,0.00,,,0.00,Wunderground v.1.15,2013-04-17 04:01:00,
2013-04-17 00:02:00,64.0,56.6,30.14,SW,233,2.0,2.0,77,0.00,,,0.00,Wunderground v.1.15,2013-04-17 04:02:00,
2013-04-17 00:08:00,64.2,56.5,30.14,SW,233,0.0,0.0,76,0.00,,,0.00,Wunderground v.1.15,2013-04-17 04:08:00,
2013-04-17 00:16:00,64.5,56.8,30.13,WSW,248,0.0,0.0,76,0.00,,,0.00,Wunderground v.1.15,2013-04-17 04:16:00,
2013-04-17 00:21:00,64.5,56.4,30.13,WSW,248,0.0,0.0,75,0.00,,,0.00,Wunderground v.1.15,2013-04-17 04:21:00,
2013-04-17 00:26:00,64.7,56.6,30.13,WSW,248,0.0,0.0,75,0.00,,,0.00,Wunderground v.1.15,2013-04-17 04:26:00,
2013-04-17 00:32:00,64.7,56.6,30.13,WSW,248,0.0,0.0,75,0.00,,,0.00,Wunderground v.1.15,2013-04-17 04:32:00,
2013-04-17 00:38:00,64.5,56.8,30.13,WSW,248,0.0,0.0,76,0.00,,,0.00,Wunderground v.1.15,2013-04-17 04:38:00,
2013-04-17 00:43:00,64.3,56.9,30.13,WSW,248,0.0,0.0,77,0.00,,,0.00,Wunderground v.1.15,2013-04-17 04:43:00,
2013-04-17 00:49:00,64.2,56.8,30.13,WSW,248,0.0,0.0,77,0.00,,,0.00,Wunderground v.1.15,2013-04-17 04:49:00,
2013-04-17 00:55:00,64.0,56.6,30.13,WSW,248,0.0,0.0,77,0.00,,,0.00,Wunderground v.1.15,2013-04-17 04:55:00,
2013-04-17 01:01:00,64.0,56.6,30.13,WSW,248,0.0,0.0,77,0.00,,,0.00,Wunderground v.1.15,2013-04-17 05:01:00,
2013-04-17 01:06:00,64.0,56.6,30.13,WSW,248,0.0,0.0,77,0.00,,,0.00,Wunderground v.1.15,2013-04-17 05:06:00,
2013-04-17 01:12:00,64.2,56.5,30.13,WSW,248,0.0,0.0,76,0.00,,,0.00,Wunderground v.1.15,2013-04-17 05:12:00,
2013-04-17 01:18:00,64.2,56.5,30.12,WSW,248,0.0,0.0,76,0.00,,,0.00,Wunderground v.1.15,2013-04-17 05:18:00,
2013-04-17 01:25:00,64.2,56.5,30.12,WSW,248,0.0,0.0,76,0.00,,,0.00,Wunderground v.1.15,2013-04-17 05:25:00,
2013-04-17 01:31:00,64.0,56.6,30.12,WSW,248,0.0,0.0,77,0.00,,,0.00,Wunderground v.1.15,2013-04-17 05:31:00,
2013-04-17 01:37:00,64.0,56.6,30.12,WSW,248,0.0,0.0,77,0.00,,,0.00,Wunderground v.1.15,2013-04-17 05:37:00,
2013-04-17 01:42:00,63.9,56.5,30.12,WSW,248,0.0,0.0,77,0.00,,,0.00,Wunderground v.1.15,2013-04-17 05:42:00,
2013-04-17 01:48:00,63.9,56.5,30.12,WSW,248,0.0,0.0,77,0.00,,,0.00,Wunderground v.1.15,2013-04-17 05:48:00,
2013-04-17 01:53:00,63.9,56.5,30.12,WSW,248,0.0,0.0,77,0.00,,,0.00,Wunderground v.1.15,2013-04-17 05:53:00,
2013-04-17 01:59:00,63.9,56.5,30.11,WSW,248,0.0,0.0,77,0.00,,,0.00,Wunderground v.1.15,2013-04-17 05:59:00,
2013-04-17 02:05:00,63.5,56.9,30.11,WSW,248,0.0,0.0,79,0.00,,,0.00,Wunderground v.1.15,2013-04-17 06:05:00,
2013-04-17 02:11:00,63.2,56.9,30.11,WSW,254,0.0,0.0,80,0.00,,,0.00,Wunderground v.1.15,2013-04-17 06:11:00,
2013-04-17 02:16:00,63.2,56.6,30.12,West,268,1.0,3.0,79,0.00,,,0.00,Wunderground v.1.15,2013-04-17 06:16:00,
2013-04-17 02:21:00,63.2,56.2,30.12,West,267,2.0,3.0,78,0.00,,,0.00,Wunderground v.1.15,2013-04-17 06:21:00,
2013-04-17 02:26:00,63.4,56.4,30.12,WSW,257,1.0,2.0,78,0.00,,,0.00,Wunderground v.1.15,2013-04-17 06:26:00,
2013-04-17 02:31:00,63.5,56.5,30.12,West,261,0.0,3.0,78,0.00,,,0.00,Wunderground v.1.15,2013-04-17 06:31:00,
2013-04-17 02:37:00,63.4,56.4,30.12,West,261,0.0,1.0,78,0.00,,,0.00,Wunderground v.1.15,2013-04-17 06:37:00,
2013-04-17 02:42:00,63.5,56.5,30.12,West,261,0.0,1.0,78,0.00,,,0.00,Wunderground v.1.15,2013-04-17 06:42:00,
2013-04-17 02:47:00,63.5,56.5,30.11,SW,234,0.0,0.0,78,0.00,,,0.00,Wunderground v.1.15,2013-04-17 06:47:00,
2013-04-17 02:52:00,63.4,56.4,30.11,SW,234,0.0,0.0,78,0.00,,,0.00,Wunderground v.1.15,2013-04-17 06:52:00,
2013-04-17 02:57:00,63.1,57.2,30.11,SW,234,0.0,0.0,81,0.00,,,0.00,Wunderground v.1.15,2013-04-17 06:57:00,
2013-04-17 03:02:00,62.7,56.8,30.12,West,278,2.0,3.0,81,0.00,,,0.00,Wunderground v.1.15,2013-04-17 07:02:00,
2013-04-17 03:08:00,62.7,56.4,30.12,West,277,2.0,3.0,80,0.00,,,0.00,Wunderground v.1.15,2013-04-17 07:08:00,
2013-04-17 03:13:00,62.4,56.8,30.12,West,272,3.0,6.0,82,0.00,,,0.00,Wunderground v.1.15,2013-04-17 07:13:00,
2013-04-17 03:18:00,62.4,56.5,30.12,WNW,291,1.0,3.0,81,0.00,,,0.00,Wunderground v.1.15,2013-04-17 07:18:00,
2013-04-17 03:23:00,62.7,56.1,30.12,WNW,282,1.0,3.0,79,0.00,,,0.00,Wunderground v.1.15,2013-04-17 07:23:00,
2013-04-17 03:28:00,62.9,56.3,30.12,West,278,1.0,4.0,79,0.00,,,0.00,Wunderground v.1.15,2013-04-17 07:28:00,
2013-04-17 03:36:00,62.9,56.6,30.12,West,277,3.0,3.0,80,0.00,,,0.00,Wunderground v.1.15,2013-04-17 07:36:00,
2013-04-17 03:41:00,62.9,56.6,30.12,West,271,0.0,4.0,80,0.00,,,0.00,Wunderground v.1.15,2013-04-17 07:41:00,
2013-04-17 03:46:00,62.9,56.3,30.12,West,275,0.0,1.0,79,0.00,,,0.00,Wunderground v.1.15,2013-04-17 07:46:00,
2013-04-17 03:51:00,63.1,56.5,30.12,West,275,0.0,1.0,79,0.00,,,0.00,Wunderground v.1.15,2013-04-17 07:51:00,
2013-04-17 03:56:00,63.2,56.2,30.12,West,275,0.0,0.0,78,0.00,,,0.00,Wunderground v.1.15,2013-04-17 07:56:00,
2013-04-17 04:01:00,62.9,57.0,30.12,West,275,0.0,0.0,81,0.00,,,0.00,Wunderground v.1.15,2013-04-17 08:01:00,
2013-04-17 04:06:00,62.3,57.1,30.12,West,275,0.0,0.0,83,0.00,,,0.00,Wunderground v.1.15,2013-04-17 08:06:00,
2013-04-17 04:12:00,61.8,56.9,30.12,West,275,0.0,0.0,84,0.00,,,0.00,Wunderground v.1.15,2013-04-17 08:12:00,
2013-04-17 04:17:00,61.5,56.6,30.12,West,274,2.0,3.0,84,0.00,,,0.00,Wunderground v.1.15,2013-04-17 08:17:00,
2013-04-17 04:22:00,61.2,56.7,30.12,West,268,2.0,3.0,85,0.00,,,0.00,Wunderground v.1.15,2013-04-17 08:22:00,
2013-04-17 04:27:00,61.0,56.5,30.12,West,268,3.0,3.0,85,0.00,,,0.00,Wunderground v.1.15,2013-04-17 08:27:00,
2013-04-17 04:32:00,61.2,56.3,30.12,West,271,3.0,5.0,84,0.00,,,0.00,Wunderground v.1.15,2013-04-17 08:32:00,
2013-04-17 04:37:00,61.5,56.3,30.12,West,275,2.0,5.0,83,0.00,,,0.00,Wunderground v.1.15,2013-04-17 08:37:00,
2013-04-17 04:43:00,61.8,56.2,30.12,WSW,246,2.0,5.0,82,0.00,,,0.00,Wunderground v.1.15,2013-04-17 08:43:00,
2013-04-17 04:48:00,62.3,56.4,30.12,WSW,257,4.0,4.0,81,0.00,,,0.00,Wunderground v.1.15,2013-04-17 08:48:00,
2013-04-17 04:53:00,62.6,56.3,30.12,WSW,250,0.0,4.0,80,0.00,,,0.00,Wunderground v.1.15,2013-04-17 08:53:00,
2013-04-17 04:58:00,62.7,56.4,30.12,WSW,254,0.0,2.0,80,0.00,,,0.00,Wunderground v.1.15,2013-04-17 08:58:00,
2013-04-17 05:03:00,62.7,56.4,30.12,WSW,247,2.0,4.0,80,0.00,,,0.00,Wunderground v.1.15,2013-04-17 09:03:00,
2013-04-17 05:08:00,62.9,56.3,30.12,WSW,248,3.0,3.0,79,0.00,,,0.00,Wunderground v.1.15,2013-04-17 09:08:00,
2013-04-17 05:13:00,62.6,56.7,30.12,WSW,248,3.0,4.0,81,0.00,,,0.00,Wunderground v.1.15,2013-04-17 09:13:00,
2013-04-17 05:18:00,62.3,56.7,30.12,WSW,243,3.0,5.0,82,0.00,,,0.00,Wunderground v.1.15,2013-04-17 09:18:00,
2013-04-17 05:24:00,61.8,56.6,30.12,WSW,237,3.0,5.0,83,0.00,,,0.00,Wunderground v.1.15,2013-04-17 09:24:00,
2013-04-17 05:29:00,62.1,56.2,30.13,WSW,250,2.0,3.0,81,0.00,,,0.00,Wunderground v.1.15,2013-04-17 09:29:00,
2013-04-17 05:36:00,62.4,56.1,30.13,SW,220,4.0,4.0,80,0.00,,,0.00,Wunderground v.1.15,2013-04-17 09:36:00,
2013-04-17 05:41:00,62.7,56.1,30.13,SW,224,0.0,5.0,79,0.00,,,0.00,Wunderground v.1.15,2013-04-17 09:41:00,
2013-04-17 05:46:00,62.6,56.3,30.12,South,185,0.0,1.0,80,0.00,,,0.00,Wunderground v.1.15,2013-04-17 09:46:00,
2013-04-17 05:51:00,62.4,56.5,30.12,SW,236,0.0,2.0,81,0.00,,,0.00,Wunderground v.1.15,2013-04-17 09:51:00,
2013-04-17 05:56:00,62.1,56.2,30.12,SSW,195,1.0,2.0,81,0.00,,,0.00,Wunderground v.1.15,2013-04-17 09:56:00,
2013-04-17 06:02:00,61.6,56.0,30.13,SW,219,3.0,6.0,82,0.00,,,0.00,Wunderground v.1.15,2013-04-17 10:02:00,
2013-04-17 06:07:00,61.5,56.3,30.13,SSW,200,2.0,5.0,83,0.00,,,0.00,Wunderground v.1.15,2013-04-17 10:07:00,
2013-04-17 06:12:00,61.3,56.1,30.13,SW,227,6.0,6.0,83,0.00,,,0.00,Wunderground v.1.15,2013-04-17 10:12:00,
2013-04-17 06:17:00,61.3,56.4,30.14,SW,233,1.0,3.0,84,0.00,,,0.00,Wunderground v.1.15,2013-04-17 10:17:00,
2013-04-17 06:22:00,61.8,56.2,30.14,SW,224,2.0,5.0,82,0.00,,,0.00,Wunderground v.1.15,2013-04-17 10:22:00,
2013-04-17 06:27:00,61.8,56.6,30.14,SW,224,2.0,3.0,83,0.00,,,0.00,Wunderground v.1.15,2013-04-17 10:27:00,
2013-04-17 06:32:00,62.1,56.5,30.13,SW,217,0.0,4.0,82,0.00,,,0.00,Wunderground v.1.15,2013-04-17 10:32:00,
2013-04-17 06:37:00,61.6,56.0,30.13,SSW,202,0.0,2.0,82,0.00,,,0.00,Wunderground v.1.15,2013-04-17 10:37:00,
2013-04-17 06:42:00,61.5,56.3,30.13,SSW,202,0.0,2.0,83,0.00,,,0.00,Wunderground v.1.15,2013-04-17 10:42:00,
2013-04-17 06:47:00,61.3,56.1,30.13,SSW,202,0.0,0.0,83,0.00,,,0.00,Wunderground v.1.15,2013-04-17 10:47:00,
2013-04-17 06:52:00,61.3,56.1,30.13,SSW,202,0.0,0.0,83,0.00,,,0.00,Wunderground v.1.15,2013-04-17 10:52:00,
2013-04-17 06:57:00,61.0,56.1,30.13,SSW,202,0.0,0.0,84,0.00,,,0.00,Wunderground v.1.15,2013-04-17 10:57:00,
2013-04-17 07:03:00,61.0,56.1,30.14,SSW,202,0.0,0.0,84,0.00,,,0.00,Wunderground v.1.15,2013-04-17 11:03:00,
2013-04-17 07:08:00,60.9,56.0,30.14,SSW,202,0.0,0.0,84,0.00,,,0.00,Wunderground v.1.15,2013-04-17 11:08:00,
2013-04-17 07:13:00,60.9,56.0,30.15,SSW,202,0.0,0.0,84,0.00,,,0.00,Wunderground v.1.15,2013-04-17 11:13:00,
2013-04-17 07:19:00,60.7,56.2,30.15,SSW,202,0.0,0.0,85,0.00,,,0.00,Wunderground v.1.15,2013-04-17 11:19:00,
2013-04-17 07:24:00,60.9,56.0,30.15,SSW,202,0.0,0.0,84,0.00,,,0.00,Wunderground v.1.15,2013-04-17 11:24:00,
2013-04-17 07:29:00,60.9,56.0,30.16,SSW,202,0.0,0.0,84,0.00,,,0.00,Wunderground v.1.15,2013-04-17 11:29:00,
2013-04-17 07:37:00,61.0,56.1,30.16,SSW,202,0.0,0.0,84,0.00,,,0.00,Wunderground v.1.15,2013-04-17 11:37:00,
2013-04-17 07:42:00,61.2,56.3,30.16,SSW,202,0.0,0.0,84,0.00,,,0.00,Wunderground v.1.15,2013-04-17 11:42:00,
2013-04-17 07:47:00,61.5,56.6,30.16,SSW,202,0.0,0.0,84,0.00,,,0.00,Wunderground v.1.15,2013-04-17 11:47:00,
2013-04-17 07:52:00,62.0,56.8,30.16,SSW,202,0.0,0.0,83,0.00,,,0.00,Wunderground v.1.15,2013-04-17 11:52:00,
2013-04-17 07:57:00,62.3,56.4,30.16,SSW,202,0.0,0.0,81,0.00,,,0.00,Wunderground v.1.15,2013-04-17 11:57:00,
2013-04-17 08:03:00,62.6,57.4,30.16,NNW,328,0.0,0.0,83,0.00,,,0.00,Wunderground v.1.15,2013-04-17 12:03:00,
2013-04-17 08:08:00,62.9,57.0,30.16,NW,325,0.0,0.0,81,0.00,,,0.00,Wunderground v.1.15,2013-04-17 12:08:00,
2013-04-17 08:13:00,63.4,57.5,30.16,NW,325,0.0,0.0,81,0.00,,,0.00,Wunderground v.1.15,2013-04-17 12:13:00,
2013-04-17 08:18:00,63.5,57.2,30.16,NW,325,0.0,0.0,80,0.00,,,0.00,Wunderground v.1.15,2013-04-17 12:18:00,
2013-04-17 08:23:00,63.7,56.7,30.16,NW,325,0.0,0.0,78,0.00,,,0.00,Wunderground v.1.15,2013-04-17 12:23:00,
2013-04-17 08:28:00,63.7,56.7,30.15,NW,323,0.0,0.0,78,0.00,,,0.00,Wunderground v.1.15,2013-04-17 12:28:00,
2013-04-17 08:33:00,63.7,56.7,30.15,North,7,0.0,0.0,78,0.00,,,0.00,Wunderground v.1.15,2013-04-17 12:33:00,
2013-04-17 08:38:00,63.9,56.9,30.15,SE,141,0.0,0.0,78,0.00,,,0.00,Wunderground v.1.15,2013-04-17 12:38:00,
2013-04-17 08:44:00,64.0,57.0,30.15,ESE,102,0.0,0.0,78,0.00,,,0.00,Wunderground v.1.15,2013-04-17 12:44:00,
2013-04-17 08:49:00,64.3,57.3,30.15,ESE,102,0.0,0.0,78,0.00,,,0.00,Wunderground v.1.15,2013-04-17 12:49:00,
2013-04-17 08:56:00,64.7,57.7,30.15,SSE,151,0.0,0.0,78,0.00,,,0.00,Wunderground v.1.15,2013-04-17 12:56:00,
2013-04-17 09:01:00,64.8,57.4,30.15,SSE,151,0.0,0.0,77,0.00,,,0.00,Wunderground v.1.15,2013-04-17 13:01:00,
2013-04-17 09:06:00,65.0,57.6,30.15,SSE,154,0.0,0.0,77,0.00,,,0.00,Wunderground v.1.15,2013-04-17 13:06:00,
2013-04-17 09:12:00,65.0,57.2,30.15,SSE,165,0.0,0.0,76,0.00,,,0.00,Wunderground v.1.15,2013-04-17 13:12:00,
2013-04-17 09:17:00,65.3,57.9,30.15,SSE,168,0.0,0.0,77,0.00,,,0.00,Wunderground v.1.15,2013-04-17 13:17:00,
2013-04-17 09:22:00,65.6,57.8,30.15,South,185,0.0,0.0,76,0.00,,,0.00,Wunderground v.1.15,2013-04-17 13:22:00,
2013-04-17 09:27:00,66.6,58.4,30.15,ESE,116,0.0,0.0,75,0.00,,,0.00,Wunderground v.1.15,2013-04-17 13:27:00,
2013-04-17 09:32:00,68.1,58.7,30.15,ENE,76,0.0,3.0,72,0.00,,,0.00,Wunderground v.1.15,2013-04-17 13:32:00,
2013-04-17 09:37:00,69.1,59.3,30.15,East,99,0.0,1.0,71,0.00,,,0.00,Wunderground v.1.15,2013-04-17 13:37:00,
2013-04-17 09:42:00,69.8,60.4,30.15,East,82,2.0,4.0,72,0.00,,,0.00,Wunderground v.1.15,2013-04-17 13:42:00,
2013-04-17 09:48:00,70.1,59.9,30.13,East,79,0.0,1.0,70,0.00,,,0.00,Wunderground v.1.15,2013-04-17 13:48:00,
2013-04-17 09:53:00,70.6,59.9,30.13,East,86,0.0,2.0,69,0.00,,,0.00,Wunderground v.1.15,2013-04-17 13:53:00,
2013-04-17 09:58:00,70.8,59.7,30.13,East,86,0.0,1.0,68,0.00,,,0.00,Wunderground v.1.15,2013-04-17 13:58:00,
2013-04-17 10:03:00,70.4,59.7,30.13,East,90,0.0,4.0,69,0.00,,,0.00,Wunderground v.1.15,2013-04-17 14:03:00,
2013-04-17 10:08:00,70.3,60.1,30.13,East,90,0.0,1.0,70,0.00,,,0.00,Wunderground v.1.15,2013-04-17 14:08:00,
2013-04-17 10:14:00,70.4,58.9,30.14,South,172,1.0,1.0,67,0.00,,,0.00,Wunderground v.1.15,2013-04-17 14:14:00,
2013-04-17 10:19:00,70.6,59.1,30.14,SSE,154,0.0,2.0,67,0.00,,,0.00,Wunderground v.1.15,2013-04-17 14:19:00,
2013-04-17 10:26:00,70.8,59.7,30.14,SE,131,0.0,0.0,68,0.00,,,0.00,Wunderground v.1.15,2013-04-17 14:26:00,
2013-04-17 10:31:00,71.1,59.2,30.13,South,174,0.0,3.0,66,0.00,,,0.00,Wunderground v.1.15,2013-04-17 14:31:00,
2013-04-17 10:36:00,71.1,59.6,30.13,South,171,0.0,3.0,67,0.00,,,0.00,Wunderground v.1.15,2013-04-17 14:36:00,
2013-04-17 10:41:00,71.5,59.5,30.13,SSE,160,0.0,3.0,66,0.00,,,0.00,Wunderground v.1.15,2013-04-17 14:41:00,
2013-04-17 10:46:00,71.6,59.6,30.12,SE,126,2.0,2.0,66,0.00,,,0.00,Wunderground v.1.15,2013-04-17 14:46:00,
2013-04-17 10:51:00,72.1,60.1,30.12,East,89,1.0,3.0,66,0.00,,,0.00,Wunderground v.1.15,2013-04-17 14:51:00,
2013-04-17 10:56:00,72.5,60.1,30.12,SSE,164,0.0,1.0,65,0.00,,,0.00,Wunderground v.1.15,2013-04-17 14:56:00,
2013-04-17 11:02:00,72.8,60.3,30.11,ESE,107,0.0,5.0,65,0.00,,,0.00,Wunderground v.1.15,2013-04-17 15:02:00,
2013-04-17 11:07:00,74.0,60.2,30.11,SE,128,1.0,3.0,62,0.00,,,0.00,Wunderground v.1.15,2013-04-17 15:07:00,
2013-04-17 11:12:00,74.4,60.1,30.11,SSE,165,0.0,3.0,61,0.00,,,0.00,Wunderground v.1.15,2013-04-17 15:12:00,
2013-04-17 11:18:00,73.2,59.8,30.11,South,178,0.0,3.0,63,0.00,,,0.00,Wunderground v.1.15,2013-04-17 15:18:00,
2013-04-17 11:23:00,73.5,61.0,30.11,East,90,0.0,6.0,65,0.00,,,0.00,Wunderground v.1.15,2013-04-17 15:23:00,
2013-04-17 11:28:00,73.2,60.3,30.12,SSE,168,0.0,6.0,64,0.00,,,0.00,Wunderground v.1.15,2013-04-17 15:28:00,
2013-04-17 11:33:00,73.5,60.6,30.12,South,184,0.0,6.0,64,0.00,,,0.00,Wunderground v.1.15,2013-04-17 15:33:00,
2013-04-17 11:38:00,74.0,60.2,30.12,SSE,167,3.0,3.0,62,0.00,,,0.00,Wunderground v.1.15,2013-04-17 15:38:00,
2013-04-17 11:43:00,74.7,60.4,30.11,East,96,1.0,6.0,61,0.00,,,0.00,Wunderground v.1.15,2013-04-17 15:43:00,
2013-04-17 11:49:00,75.1,61.6,30.11,ESE,116,2.0,3.0,63,0.00,,,0.00,Wunderground v.1.15,2013-04-17 15:49:00,
2013-04-17 11:54:00,76.0,61.6,30.11,ENE,75,1.0,6.0,61,0.00,,,0.00,Wunderground v.1.15,2013-04-17 15:54:00,
2013-04-17 11:59:00,76.8,61.4,30.10,ENE,71,0.0,3.0,59,0.00,,,0.00,Wunderground v.1.15,2013-04-17 15:59:00,
2013-04-17 12:05:00,77.4,61.0,30.10,South,181,1.0,2.0,57,0.00,,,0.00,Wunderground v.1.15,2013-04-17 16:05:00,
2013-04-17 12:12:00,77.2,61.3,30.10,South,186,0.0,5.0,58,0.00,,,0.00,Wunderground v.1.15,2013-04-17 16:12:00,
2013-04-17 12:17:00,77.0,60.6,30.09,SE,140,0.0,1.0,57,0.00,,,0.00,Wunderground v.1.15,2013-04-17 16:17:00,
2013-04-17 12:22:00,77.2,61.3,30.09,South,191,0.0,3.0,58,0.00,,,0.00,Wunderground v.1.15,2013-04-17 16:22:00,
2013-04-17 12:27:00,77.6,60.7,30.09,South,175,1.0,1.0,56,0.00,,,0.00,Wunderground v.1.15,2013-04-17 16:27:00,
2013-04-17 12:32:00,77.2,61.8,30.08,South,184,0.0,4.0,59,0.00,,,0.00,Wunderground v.1.15,2013-04-17 16:32:00,
2013-04-17 12:37:00,78.1,61.6,30.08,SSW,195,0.0,1.0,57,0.00,,,0.00,Wunderground v.1.15,2013-04-17 16:37:00,
2013-04-17 12:42:00,78.3,60.8,30.08,SSE,168,0.0,4.0,55,0.00,,,0.00,Wunderground v.1.15,2013-04-17 16:42:00,
2013-04-17 12:48:00,78.6,61.1,30.08,SW,217,2.0,7.0,55,0.00,,,0.00,Wunderground v.1.15,2013-04-17 16:48:00,
2013-04-17 12:53:00,79.2,60.1,30.08,SSW,212,0.0,7.0,52,0.00,,,0.00,Wunderground v.1.15,2013-04-17 16:53:00,
2013-04-17 12:58:00,79.2,60.6,30.06,SSE,168,3.0,5.0,53,0.00,,,0.00,Wunderground v.1.15,2013-04-17 16:58:00,
2013-04-17 13:03:00,78.6,60.6,30.06,SW,227,6.0,6.0,54,0.00,,,0.00,Wunderground v.1.15,2013-04-17 17:03:00,
2013-04-17 13:08:00,78.5,60.5,30.06,SSW,203,0.0,6.0,54,0.00,,,0.00,Wunderground v.1.15,2013-04-17 17:08:00,
2013-04-17 13:13:00,78.5,60.5,30.06,SSE,158,0.0,6.0,54,0.00,,,0.00,Wunderground v.1.15,2013-04-17 17:13:00,
2013-04-17 13:18:00,77.9,60.4,30.06,East,90,0.0,4.0,55,0.00,,,0.00,Wunderground v.1.15,2013-04-17 17:18:00,
2013-04-17 13:23:00,77.4,60.0,30.06,East,93,0.0,4.0,55,0.00,,,0.00,Wunderground v.1.15,2013-04-17 17:23:00,
2013-04-17 13:29:00,77.2,59.3,30.06,SSE,162,0.0,0.0,54,0.00,,,0.00,Wunderground v.1.15,2013-04-17 17:29:00,
2013-04-17 13:34:00,76.7,59.8,30.06,SW,219,0.0,2.0,56,0.00,,,0.00,Wunderground v.1.15,2013-04-17 17:34:00,
2013-04-17 13:39:00,76.3,59.4,30.06,SSW,192,1.0,4.0,56,0.00,,,0.00,Wunderground v.1.15,2013-04-17 17:39:00,
2013-04-17 13:46:00,75.6,59.3,30.05,WSW,251,0.0,1.0,57,0.00,,,0.00,Wunderground v.1.15,2013-04-17 17:46:00,
2013-04-17 13:51:00,75.3,59.5,30.05,SW,222,1.0,3.0,58,0.00,,,0.00,Wunderground v.1.15,2013-04-17 17:51:00,
2013-04-17 13:56:00,74.7,63.0,30.05,WSW,247,11.0,11.0,67,0.00,,,0.00,Wunderground v.1.15,2013-04-17 17:56:00,
2013-04-17 14:01:00,72.7,64.3,30.06,West,267,8.0,12.0,75,0.00,,,0.00,Wunderground v.1.15,2013-04-17 18:01:00,
2013-04-17 14:06:00,70.9,65.1,30.06,NW,306,0.0,7.0,82,0.00,,,0.00,Wunderground v.1.15,2013-04-17 18:06:00,
2013-04-17 14:12:00,68.9,61.8,30.06,WNW,302,3.0,7.0,78,0.00,,,0.00,Wunderground v.1.15,2013-04-17 18:12:00,
2013-04-17 14:17:00,67.3,58.3,30.08,NW,325,5.0,8.0,73,0.00,,,0.00,Wunderground v.1.15,2013-04-17 18:17:00,
2013-04-17 14:22:00,66.1,54.8,30.08,NNW,336,5.0,16.0,67,0.00,,,0.00,Wunderground v.1.15,2013-04-17 18:22:00,
2013-04-17 14:27:00,66.3,53.8,30.08,NE,37,5.0,7.0,64,0.00,,,0.00,Wunderground v.1.15,2013-04-17 18:27:00,
2013-04-17 14:32:00,65.6,55.9,30.09,ENE,64,7.0,7.0,71,0.00,,,0.00,Wunderground v.1.15,2013-04-17 18:32:00,
2013-04-17 14:37:00,63.9,56.2,30.09,ENE,73,7.0,7.0,76,0.00,,,0.00,Wunderground v.1.15,2013-04-17 18:37:00,
2013-04-17 14:42:00,62.9,59.0,30.09,ENE,59,2.0,7.0,87,0.00,,,0.00,Wunderground v.1.15,2013-04-17 18:42:00,
2013-04-17 14:47:00,62.7,59.4,30.10,ENE,59,0.0,3.0,89,0.00,,,0.00,Wunderground v.1.15,2013-04-17 18:47:00,
2013-04-17 14:52:00,62.9,59.9,30.10,East,95,0.0,7.0,90,0.00,,,0.00,Wunderground v.1.15,2013-04-17 18:52:00,
2013-04-17 14:57:00,63.1,60.1,30.10,East,95,0.0,1.0,90,0.00,,,0.00,Wunderground v.1.15,2013-04-17 18:57:00,
2013-04-17 15:02:00,63.1,59.8,30.09,ESE,113,0.0,4.0,89,0.00,,,0.00,Wunderground v.1.15,2013-04-17 19:02:00,
2013-04-17 15:07:00,63.1,60.1,30.09,ESE,113,0.0,1.0,90,0.00,,,0.00,Wunderground v.1.15,2013-04-17 19:07:00,
2013-04-17 15:13:00,63.2,59.6,30.09,West,272,3.0,5.0,88,0.00,,,0.00,Wunderground v.1.15,2013-04-17 19:13:00,
2013-04-17 15:18:00,63.4,60.7,30.09,NW,325,2.0,3.0,91,0.00,,,0.00,Wunderground v.1.15,2013-04-17 19:18:00,
2013-04-17 15:23:00,63.2,59.9,30.09,NW,325,0.0,3.0,89,0.00,,,0.00,Wunderground v.1.15,2013-04-17 19:23:00,
2013-04-17 15:28:00,63.1,60.1,30.09,NW,325,0.0,0.0,90,0.00,,,0.00,Wunderground v.1.15,2013-04-17 19:28:00,
2013-04-17 15:33:00,63.2,61.1,30.09,NW,325,0.0,0.0,93,0.00,,,0.00,Wunderground v.1.15,2013-04-17 19:33:00,
2013-04-17 15:38:00,63.2,60.8,30.09,NNE,14,2.0,2.0,92,0.00,,,0.00,Wunderground v.1.15,2013-04-17 19:38:00,
2013-04-17 15:43:00,63.1,60.7,30.09,NNW,328,0.0,2.0,92,0.00,,,0.00,Wunderground v.1.15,2013-04-17 19:43:00,
2013-04-17 15:49:00,62.9,60.5,30.09,ENE,73,0.0,2.0,92,0.00,,,0.00,Wunderground v.1.15,2013-04-17 19:49:00,
2013-04-17 15:54:00,62.7,60.3,30.09,NE,52,4.0,5.0,92,0.00,,,0.00,Wunderground v.1.15,2013-04-17 19:54:00,
2013-04-17 15:59:00,61.8,58.8,30.10,NE,55,7.0,9.0,90,0.00,,,0.00,Wunderground v.1.15,2013-04-17 19:59:00,
2013-04-17 16:04:00,61.3,58.7,30.10,NE,56,6.0,7.0,91,0.00,,,0.00,Wunderground v.1.15,2013-04-17 20:04:00,
2013-04-17 16:11:00,61.2,59.2,30.10,ENE,64,6.0,7.0,93,0.00,,,0.00,Wunderground v.1.15,2013-04-17 20:11:00,
2013-04-17 16:17:00,61.3,59.6,30.10,ENE,69,7.0,7.0,94,0.00,,,0.00,Wunderground v.1.15,2013-04-17 20:17:00,
2013-04-17 16:22:00,61.3,59.3,30.10,NNW,332,4.0,7.0,93,0.00,,,0.00,Wunderground v.1.15,2013-04-17 20:22:00,
2013-04-17 16:27:00,61.3,59.3,30.10,ENE,78,7.0,8.0,93,0.00,,,0.00,Wunderground v.1.15,2013-04-17 20:27:00,
2013-04-17 16:32:00,61.3,59.3,30.10,North,11,3.0,8.0,93,0.00,,,0.00,Wunderground v.1.15,2013-04-17 20:32:00,
2013-04-17 16:37:00,61.2,59.2,30.10,NE,54,7.0,12.0,93,0.00,,,0.00,Wunderground v.1.15,2013-04-17 20:37:00,
2013-04-17 16:42:00,61.0,59.0,30.10,ENE,62,4.0,12.0,93,0.00,,,0.00,Wunderground v.1.15,2013-04-17 20:42:00,
2013-04-17 16:48:00,61.0,59.3,30.09,NNE,24,1.0,6.0,94,0.00,,,0.00,Wunderground v.1.15,2013-04-17 20:48:00,
2013-04-17 16:53:00,61.0,59.0,30.09,NNE,27,6.0,7.0,93,0.00,,,0.00,Wunderground v.1.15,2013-04-17 20:53:00,
2013-04-17 16:58:00,61.0,59.0,30.10,NE,37,1.0,5.0,93,0.00,,,0.00,Wunderground v.1.15,2013-04-17 20:58:00,
2013-04-17 17:03:00,61.2,59.2,30.10,SSW,210,2.0,5.0,93,0.00,,,0.00,Wunderground v.1.15,2013-04-17 21:03:00,
2013-04-17 17:08:00,61.2,59.5,30.10,SSW,213,0.0,2.0,94,0.00,,,0.00,Wunderground v.1.15,2013-04-17 21:08:00,
2013-04-17 17:13:00,61.2,59.5,30.11,NW,318,4.0,5.0,94,0.00,,,0.00,Wunderground v.1.15,2013-04-17 21:13:00,
2013-04-17 17:18:00,61.2,59.5,30.11,WNW,294,3.0,6.0,94,0.00,,,0.00,Wunderground v.1.15,2013-04-17 21:18:00,
2013-04-17 17:23:00,61.2,59.5,30.11,WNW,295,2.0,6.0,94,0.00,,,0.00,Wunderground v.1.15,2013-04-17 21:23:00,
2013-04-17 17:28:00,60.9,58.9,30.12,North,0,3.0,5.0,93,0.00,,,0.00,Wunderground v.1.15,2013-04-17 21:28:00,
2013-04-17 17:33:00,60.7,58.4,30.12,NNE,31,5.0,6.0,92,0.00,,,0.00,Wunderground v.1.15,2013-04-17 21:33:00,
2013-04-17 17:38:00,60.7,58.4,30.12,NNE,13,5.0,5.0,92,0.00,,,0.00,Wunderground v.1.15,2013-04-17 21:38:00,
2013-04-17 17:46:00,60.5,58.2,30.10,NE,44,3.0,3.0,92,0.00,,,0.00,Wunderground v.1.15,2013-04-17 21:46:00,
2013-04-17 17:51:00,60.5,58.5,30.10,NNW,335,0.0,3.0,93,0.00,,,0.00,Wunderground v.1.15,2013-04-17 21:51:00,
2013-04-17 17:56:00,60.5,58.5,30.10,WNW,291,1.0,1.0,93,0.00,,,0.00,Wunderground v.1.15,2013-04-17 21:56:00,
2013-04-17 18:01:00,60.5,58.8,30.12,WNW,291,2.0,3.0,94,0.00,,,0.00,Wunderground v.1.15,2013-04-17 22:01:00,
2013-04-17 18:06:00,60.4,58.7,30.12,WNW,298,2.0,4.0,94,0.00,,,0.00,Wunderground v.1.15,2013-04-17 22:06:00,
2013-04-17 18:12:00,60.4,58.7,30.12,WNW,298,3.0,4.0,94,0.00,,,0.00,Wunderground v.1.15,2013-04-17 22:12:00,
2013-04-17 18:17:00,60.4,59.0,30.13,West,281,6.0,6.0,95,0.00,,,0.00,Wunderground v.1.15,2013-04-17 22:17:00,
2013-04-17 18:22:00,60.4,59.0,30.13,WNW,285,5.0,6.0,95,0.00,,,0.00,Wunderground v.1.15,2013-04-17 22:22:00,
2013-04-17 18:27:00,59.9,58.2,30.13,WNW,294,5.0,5.0,94,0.00,,,0.00,Wunderground v.1.15,2013-04-17 22:27:00,
2013-04-17 18:32:00,59.8,57.5,30.12,WNW,294,0.0,5.0,92,0.00,,,0.00,Wunderground v.1.15,2013-04-17 22:32:00,
2013-04-17 18:37:00,59.8,58.1,30.12,NE,35,0.0,2.0,94,0.00,,,0.00,Wunderground v.1.15,2013-04-17 22:37:00,
2013-04-17 18:42:00,59.8,58.4,30.12,WSW,244,5.0,5.0,95,0.00,,,0.00,Wunderground v.1.15,2013-04-17 22:42:00,
2013-04-17 18:47:00,59.8,58.7,30.12,WSW,253,4.0,5.0,96,0.00,,,0.00,Wunderground v.1.15,2013-04-17 22:47:00,
2013-04-17 18:52:00,59.8,58.7,30.12,West,261,5.0,6.0,96,0.00,,,0.00,Wunderground v.1.15,2013-04-17 22:52:00,
2013-04-17 18:57:00,59.6,58.5,30.12,WSW,251,6.0,6.0,96,0.00,,,0.00,Wunderground v.1.15,2013-04-17 22:57:00,
2013-04-17 19:03:00,59.6,58.7,30.13,WSW,257,5.0,6.0,97,0.00,,,0.00,Wunderground v.1.15,2013-04-17 23:03:00,
2013-04-17 19:08:00,59.5,58.6,30.13,West,278,6.0,6.0,97,0.00,,,0.00,Wunderground v.1.15,2013-04-17 23:08:00,
2013-04-17 19:13:00,59.5,58.6,30.13,WSW,253,5.0,6.0,97,0.00,,,0.00,Wunderground v.1.15,2013-04-17 23:13:00,
2013-04-17 19:18:00,59.3,58.4,30.12,West,271,4.0,6.0,97,0.00,,,0.00,Wunderground v.1.15,2013-04-17 23:18:00,
2013-04-17 19:23:00,59.3,58.4,30.12,WSW,241,3.0,7.0,97,0.00,,,0.00,Wunderground v.1.15,2013-04-17 23:23:00,
2013-04-17 19:28:00,59.3,58.4,30.12,WNW,284,7.0,7.0,97,0.00,,,0.00,Wunderground v.1.15,2013-04-17 23:28:00,
2013-04-17 19:33:00,59.3,58.4,30.12,West,281,5.0,7.0,97,0.00,,,0.00,Wunderground v.1.15,2013-04-17 23:33:00,
2013-04-17 19:38:00,59.2,58.3,30.12,West,268,4.0,5.0,97,0.00,,,0.00,Wunderground v.1.15,2013-04-17 23:38:00,
2013-04-17 19:46:00,59.2,58.3,30.12,WSW,246,4.0,4.0,97,0.00,,,0.00,Wunderground v.1.15,2013-04-17 23:46:00,
2013-04-17 19:51:00,59.0,58.2,30.12,WSW,250,0.0,5.0,97,0.00,,,0.00,Wunderground v.1.15,2013-04-17 23:51:00,
2013-04-17 19:56:00,59.0,58.2,30.12,WNW,302,6.0,6.0,97,0.00,,,0.00,Wunderground v.1.15,2013-04-17 23:56:00,
2013-04-17 20:02:00,59.3,58.4,30.12,WNW,282,2.0,6.0,97,0.00,,,0.00,Wunderground v.1.15,2013-04-18 00:02:00,
2013-04-17 20:07:00,59.8,58.7,30.12,WSW,254,5.0,5.0,96,0.00,,,0.00,Wunderground v.1.15,2013-04-18 00:07:00,
2013-04-17 20:12:00,60.4,59.0,30.12,WSW,256,2.0,6.0,95,0.00,,,0.00,Wunderground v.1.15,2013-04-18 00:12:00,
2013-04-17 20:17:00,60.4,59.0,30.11,WSW,256,2.0,3.0,95,0.00,,,0.00,Wunderground v.1.15,2013-04-18 00:17:00,
2013-04-17 20:22:00,60.4,59.0,30.11,West,271,1.0,5.0,95,0.00,,,0.00,Wunderground v.1.15,2013-04-18 00:22:00,
2013-04-17 20:27:00,60.4,58.4,30.11,West,271,0.0,1.0,93,0.00,,,0.00,Wunderground v.1.15,2013-04-18 00:27:00,
2013-04-17 20:33:00,60.5,58.5,30.11,West,271,3.0,5.0,93,0.00,,,0.00,Wunderground v.1.15,2013-04-18 00:33:00,
2013-04-17 20:38:00,60.5,58.5,30.11,West,271,1.0,2.0,93,0.00,,,0.00,Wunderground v.1.15,2013-04-18 00:38:00,
2013-04-17 20:43:00,60.5,58.8,30.11,West,261,3.0,3.0,94,0.00,,,0.00,Wunderground v.1.15,2013-04-18 00:43:00,
2013-04-17 20:48:00,60.2,58.5,30.09,West,261,5.0,6.0,94,0.00,,,0.00,Wunderground v.1.15,2013-04-18 00:48:00,
2013-04-17 20:53:00,60.1,58.7,30.09,WNW,288,2.0,6.0,95,0.00,,,0.00,Wunderground v.1.15,2013-04-18 00:53:00,
2013-04-17 20:58:00,59.6,58.2,30.09,WNW,288,0.0,3.0,95,0.00,,,0.00,Wunderground v.1.15,2013-04-18 00:58:00,
2013-04-17 21:03:00,58.9,57.5,30.09,West,268,3.0,5.0,95,0.00,,,0.00,Wunderground v.1.15,2013-04-18 01:03:00,
2013-04-17 21:09:00,58.6,57.5,30.09,WSW,251,5.0,5.0,96,0.00,,,0.00,Wunderground v.1.15,2013-04-18 01:09:00,
2013-04-17 21:16:00,58.3,57.5,30.08,SW,229,6.0,6.0,97,0.00,,,0.00,Wunderground v.1.15,2013-04-18 01:16:00,
2013-04-17 21:21:00,58.3,57.5,30.08,SW,219,5.0,6.0,97,0.00,,,0.00,Wunderground v.1.15,2013-04-18 01:21:00,
2013-04-17 21:26:00,58.3,57.7,30.08,WSW,244,2.0,3.0,98,0.00,,,0.00,Wunderground v.1.15,2013-04-18 01:26:00,
2013-04-17 21:32:00,58.3,57.7,30.08,WSW,243,3.0,5.0,98,0.00,,,0.00,Wunderground v.1.15,2013-04-18 01:32:00,
2013-04-17 21:37:00,58.3,57.5,30.08,WSW,256,0.0,3.0,97,0.00,,,0.00,Wunderground v.1.15,2013-04-18 01:37:00,
2013-04-17 21:42:00,58.1,57.3,30.08,West,264,4.0,4.0,97,0.00,,,0.00,Wunderground v.1.15,2013-04-18 01:42:00,
2013-04-17 21:47:00,58.1,57.3,30.08,WSW,251,4.0,6.0,97,0.00,,,0.00,Wunderground v.1.15,2013-04-18 01:47:00,
2013-04-17 21:53:00,58.3,57.2,30.08,WSW,251,2.0,6.0,96,0.00,,,0.00,Wunderground v.1.15,2013-04-18 01:53:00,
2013-04-17 21:58:00,58.4,57.3,30.08,SSW,212,3.0,6.0,96,0.00,,,0.00,Wunderground v.1.15,2013-04-18 01:58:00,
2013-04-17 22:03:00,58.4,57.3,30.07,SW,236,6.0,6.0,96,0.00,,,0.00,Wunderground v.1.15,2013-04-18 02:03:00,
2013-04-17 22:08:00,58.6,57.2,30.07,SW,220,3.0,5.0,95,0.00,,,0.00,Wunderground v.1.15,2013-04-18 02:08:00,
2013-04-17 22:13:00,58.6,57.2,30.06,SW,229,3.0,5.0,95,0.00,,,0.00,Wunderground v.1.15,2013-04-18 02:13:00,
2013-04-17 22:18:00,58.4,57.3,30.06,WSW,246,5.0,5.0,96,0.00,,,0.00,Wunderground v.1.15,2013-04-18 02:18:00,
2013-04-17 22:23:00,58.4,57.3,30.06,WSW,246,6.0,7.0,96,0.00,,,0.00,Wunderground v.1.15,2013-04-18 02:23:00,
2013-04-17 22:28:00,58.6,57.2,30.05,West,268,4.0,6.0,95,0.00,,,0.00,Wunderground v.1.15,2013-04-18 02:28:00,
2013-04-17 22:34:00,58.7,57.0,30.05,WSW,258,9.0,11.0,94,0.00,,,0.00,Wunderground v.1.15,2013-04-18 02:34:00,
2013-04-17 22:39:00,58.9,56.9,30.05,WSW,250,9.0,12.0,93,0.00,,,0.00,Wunderground v.1.15,2013-04-18 02:39:00,
2013-04-17 22:46:00,59.0,56.4,30.04,WSW,250,7.0,7.0,91,0.00,,,0.00,Wunderground v.1.15,2013-04-18 02:46:00,
2013-04-17 22:52:00,59.2,56.6,30.04,SSW,202,6.0,9.0,91,0.00,,,0.00,Wunderground v.1.15,2013-04-18 02:52:00,
2013-04-17 22:57:00,59.2,56.6,30.04,SSW,213,1.0,6.0,91,0.00,,,0.00,Wunderground v.1.15,2013-04-18 02:57:00,
2013-04-17 23:02:00,59.2,56.9,30.03,SW,233,0.0,7.0,92,0.00,,,0.00,Wunderground v.1.15,2013-04-18 03:02:00,
2013-04-17 23:07:00,59.0,57.0,30.03,WSW,241,3.0,7.0,93,0.00,,,0.00,Wunderground v.1.15,2013-04-18 03:07:00,
2013-04-17 23:12:00,59.0,56.7,30.03,SW,236,4.0,7.0,92,0.00,,,0.00,Wunderground v.1.15,2013-04-18 03:12:00,
2013-04-17 23:18:00,59.0,56.1,30.01,WSW,248,0.0,4.0,90,0.00,,,0.00,Wunderground v.1.15,2013-04-18 03:18:00,
2013-04-17 23:23:00,59.0,56.4,30.01,SE,133,2.0,4.0,91,0.00,,,0.00,Wunderground v.1.15,2013-04-18 03:23:00,
2013-04-17 23:28:00,58.9,56.9,30.01,East,85,0.0,1.0,93,0.00,,,0.00,Wunderground v.1.15,2013-04-18 03:28:00,
2013-04-17 23:33:00,58.7,57.0,30.01,East,85,0.0,1.0,94,0.00,,,0.00,Wunderground v.1.15,2013-04-18 03:33:00,
2013-04-17 23:38:00,58.6,57.2,30.01,ENE,75,0.0,7.0,95,0.00,,,0.00,Wunderground v.1.15,2013-04-18 03:38:00,
2013-04-17 23:43:00,58.4,57.0,30.01,SSE,168,2.0,7.0,95,0.00,,,0.00,Wunderground v.1.15,2013-04-18 03:43:00,
2013-04-17 23:48:00,58.4,56.7,30.01,South,189,1.0,5.0,94,0.00,,,0.00,Wunderground v.1.15,2013-04-18 03:48:00,
2013-04-17 23:53:00,58.6,56.6,30.01,WSW,257,2.0,7.0,93,0.00,,,0.00,Wunderground v.1.15,2013-04-18 03:53:00,
2013-04-17 23:58:00,58.6,56.3,30.00,East,100,4.0,4.0,92,0.00,,,0.00,Wunderground v.1.15,2013-04-18 03:58:00,